Weather History for KBOW - August, 2012

Change the Weather History Date:

Sunday, August 12, 2012

  Actual Average Record
Temperature  
Mean Temperature 80 °F -  
Max Temperature 89 °F 90 °F 98 °F (1933)
Min Temperature 71 °F 72 °F 65 °F (1934)
Cooling Degree Days 15    
Growing Degree Days 30 (Base 50)    
Moisture  
Dew Point 74 °F    
Average Humidity 91    
Maximum Humidity 100    
Minimum Humidity 55    
Precipitation  
Precipitation 1.15 in - - ()
Sea Level Pressure  
Sea Level Pressure 30.05 in    
Wind  
Wind Speed 3 mph (South)    
Max Wind Speed 14 mph    
Max Gust Speed 25 mph    
Visibility 8 miles    
Events Rain , Thunderstorm    
Averages and records for this station are not official NWS values.
T = Trace of Precipitation, MM = Missing Value Source: NWS Daily Summary

Daily Weather History Graph

Daily Weather History Graph

Search for Another Location

Airport or City:

Trip Planner

Search our weather history database for the weather conditions in past years. The results will help you decide how hot, cold, wet, or windy it might be!

Date:

Astronomy

Aug. 12, 2012 Rise Set
Actual Time 6:55 AM EDT 8:07 PM EDT
Civil Twilight 6:31 AM EDT 8:32 PM EDT
Nautical Twilight 6:01 AM EDT 9:01 PM EDT
Astronomical Twilight 5:31 AM EDT 9:31 PM EDT
Moon 2:18 AM EDT (8/12) 4:21 PM EDT (8/12)
Length of Visible Light 14h 01m
Length of Day
13h 11m
Waning Crescent, 24% of the Moon is Illuminated
Aug 12
Waning Crescent
Aug 17
New
Aug 24
First Quarter
Aug 31
Full
Sep 8
Last Quarter

Hourly Weather History & Observations

Time (EDT) Temp. Heat Index Dew Point Humidity Pressure Visibility Wind Dir Wind Speed Gust Speed Precip Events Conditions
12:35 AM 71.6 °F - 71.6 °F 100% 30.05 in 10.0 mi South 6.9 mph - N/A   Mostly Cloudy
12:55 AM 73.4 °F - 73.4 °F 100% 30.04 in 10.0 mi Calm Calm - N/A   Scattered Clouds
1:35 AM 73.4 °F - 73.4 °F 100% 30.03 in 9.0 mi South 3.5 mph - N/A   Mostly Cloudy
1:55 AM 73.4 °F - 73.4 °F 100% 30.02 in 10.0 mi Calm Calm - N/A   Mostly Cloudy
2:15 AM 73.4 °F - 73.4 °F 100% 30.02 in 10.0 mi Calm Calm - N/A   Mostly Cloudy
2:35 AM 71.6 °F - 71.6 °F 100% 30.01 in 10.0 mi Calm Calm - N/A   Scattered Clouds
2:55 AM 71.6 °F - 71.6 °F 100% 30.01 in 9.0 mi SE 3.5 mph - N/A   Mostly Cloudy
3:15 AM 71.6 °F - 71.6 °F 100% 30.01 in 10.0 mi Calm Calm - N/A   Mostly Cloudy
3:35 AM 71.6 °F - 71.6 °F 100% 30.00 in 10.0 mi Calm Calm - N/A   Partly Cloudy
4:15 AM 71.6 °F - 71.6 °F 100% 30.00 in 10.0 mi Calm Calm - N/A   Scattered Clouds
4:35 AM 73.4 °F - 73.4 °F 100% 30.00 in 10.0 mi Calm Calm - N/A   Mostly Cloudy
5:15 AM 71.6 °F - 71.6 °F 100% 30.00 in 10.0 mi Calm Calm - N/A   Scattered Clouds
5:35 AM 71.6 °F - 71.6 °F 100% 30.00 in 10.0 mi Calm Calm - N/A   Scattered Clouds
6:15 AM 71.6 °F - 71.6 °F 100% 30.01 in 10.0 mi Calm Calm - N/A   Scattered Clouds
7:15 AM 71.6 °F - 71.6 °F 100% 30.03 in 8.0 mi Calm Calm - N/A   Mostly Cloudy
7:55 AM 71.6 °F - 71.6 °F 100% 30.05 in 7.0 mi SE 3.5 mph - N/A   Scattered Clouds
8:15 AM 73.4 °F - 73.4 °F 100% 30.05 in 8.0 mi Calm Calm - N/A   Mostly Cloudy
8:35 AM 73.4 °F - 73.4 °F 100% 30.05 in 7.0 mi SSE 3.5 mph - N/A   Mostly Cloudy
9:35 AM 80.6 °F 86.2 °F 75.2 °F 84% 30.06 in 9.0 mi South 3.5 mph - N/A   Mostly Cloudy
9:55 AM 82.4 °F 89.5 °F 75.2 °F 79% 30.06 in 10.0 mi SW 3.5 mph - N/A   Mostly Cloudy
10:15 AM 82.4 °F 88.2 °F 73.4 °F 74% 30.06 in 8.0 mi SW 4.6 mph - N/A   Mostly Cloudy
10:35 AM 84.2 °F 92.3 °F 75.2 °F 74% 30.07 in 9.0 mi SW 5.8 mph - N/A   Mostly Cloudy
10:55 AM 84.2 °F 90.9 °F 73.4 °F 70% 30.07 in 9.0 mi WSW 5.8 mph - N/A   Mostly Cloudy
11:15 AM 84.2 °F 90.9 °F 73.4 °F 70% 30.07 in 10.0 mi WSW 5.8 mph - N/A   Mostly Cloudy
11:35 AM 86.0 °F 93.4 °F 73.4 °F 66% 30.06 in 9.0 mi SW 4.6 mph - N/A   Scattered Clouds
11:55 AM 87.8 °F 93.8 °F 71.6 °F 58% 30.06 in 8.0 mi SSE 5.8 mph - N/A   Mostly Cloudy
12:15 PM 87.8 °F 93.8 °F 71.6 °F 58% 30.05 in 8.0 mi West 3.5 mph - N/A Thunderstorm Scattered Clouds
12:35 PM 87.8 °F 93.8 °F 71.6 °F 58% 30.04 in 9.0 mi South 4.6 mph - N/A   Partly Cloudy
12:55 PM 89.6 °F 96.2 °F 71.6 °F 55% 30.03 in 8.0 mi WNW 4.6 mph - N/A Thunderstorm Partly Cloudy
1:15 PM 87.8 °F 92.6 °F 69.8 °F 55% 30.04 in 8.0 mi Calm Calm - N/A Thunderstorm Partly Cloudy
1:35 PM 87.8 °F 93.8 °F 71.6 °F 58% 30.04 in 9.0 mi South 6.9 mph - N/A Thunderstorm Mostly Cloudy
1:55 PM 80.6 °F 84.6 °F 71.6 °F 74% 30.06 in 4.0 mi South 9.2 mph 21.9 mph N/A Rain , Thunderstorm Heavy Rain
2:15 PM 75.2 °F - 75.2 °F 100% 30.08 in 0.2 mi SSE 13.8 mph - 0.35 in Rain , Thunderstorm Thunderstorms and Rain
2:35 PM 73.4 °F - 73.4 °F 100% 30.08 in - South 13.8 mph 25.3 mph 0.95 in Rain , Thunderstorm Heavy Thunderstorms and Rain
2:55 PM 73.4 °F - 73.4 °F 100% 30.07 in 0.8 mi South 6.9 mph - 1.14 in Rain , Thunderstorm Light Rain
3:15 PM 73.4 °F - 73.4 °F 100% 30.05 in 5.0 mi South 8.1 mph - N/A Rain , Thunderstorm Light Rain
3:35 PM 73.4 °F - 73.4 °F 100% 30.05 in 5.0 mi South 6.9 mph - 0.01 in Rain , Thunderstorm Light Rain
3:55 PM 75.2 °F - 75.2 °F 100% 30.05 in 6.0 mi South 3.5 mph - 0.01 in   Light Drizzle
4:15 PM 75.2 °F - 75.2 °F 100% 30.06 in 9.0 mi WSW 3.5 mph - N/A   Mostly Cloudy
4:35 PM 77.0 °F - 75.2 °F 94% 30.05 in 9.0 mi South 5.8 mph - N/A   Scattered Clouds
4:55 PM 78.8 °F - 75.2 °F 89% 30.04 in 8.0 mi South 3.5 mph - N/A   Scattered Clouds
5:15 PM 77.0 °F - 75.2 °F 94% 30.05 in 9.0 mi Calm Calm - N/A   Mostly Cloudy
5:35 PM 77.0 °F - 75.2 °F 94% 30.05 in 10.0 mi SSW 3.5 mph - N/A   Mostly Cloudy
5:55 PM 77.0 °F - 75.2 °F 94% 30.06 in 9.0 mi SSE 5.8 mph - N/A   Partly Cloudy
6:15 PM 77.0 °F - 77.0 °F 100% 30.06 in 9.0 mi SSE 5.8 mph - N/A   Scattered Clouds
6:35 PM 77.0 °F - 77.0 °F 100% 30.05 in 9.0 mi South 3.5 mph - N/A   Scattered Clouds
6:55 PM 77.0 °F - 77.0 °F 100% 30.05 in 9.0 mi South 3.5 mph - N/A Thunderstorm Scattered Clouds
7:15 PM 77.0 °F - 77.0 °F 100% 30.06 in 8.0 mi Calm Calm - N/A   Mostly Cloudy
7:35 PM 75.2 °F - 75.2 °F 100% 30.06 in 8.0 mi Calm Calm - N/A   Scattered Clouds
7:55 PM 75.2 °F - 75.2 °F 100% 30.06 in 8.0 mi South 4.6 mph - N/A   Mostly Cloudy
8:15 PM 75.2 °F - 75.2 °F 100% 30.06 in 7.0 mi SSE 4.6 mph - N/A   Mostly Cloudy
8:35 PM 75.2 °F - 75.2 °F 100% 30.06 in 7.0 mi Calm Calm - N/A   Mostly Cloudy
8:55 PM 75.2 °F - 75.2 °F 100% 30.06 in 9.0 mi Calm Calm - N/A   Scattered Clouds
9:15 PM 75.2 °F - 75.2 °F 100% 30.05 in 7.0 mi South 4.6 mph - N/A   Scattered Clouds
9:35 PM 75.2 °F - - N/A% 30.06 in 5.0 mi Calm Calm - N/A   Haze
9:55 PM 75.2 °F - - N/A% 30.06 in 7.0 mi Calm Calm - N/A   Mostly Cloudy
10:15 PM 75.2 °F - - N/A% 30.07 in 5.0 mi Calm Calm - N/A   Haze
10:35 PM 75.2 °F - - N/A% 30.07 in 10.0 mi Calm Calm - N/A   Clear
10:55 PM 73.4 °F - 73.4 °F 100% 30.06 in 8.0 mi Calm Calm - N/A   Scattered Clouds
11:15 PM 73.4 °F - 73.4 °F 100% 30.07 in 10.0 mi Calm Calm - N/A   Scattered Clouds
11:35 PM 73.4 °F - 73.4 °F 100% 30.07 in 9.0 mi Calm Calm - N/A   Partly Cloudy
11:55 PM 73.4 °F - 73.4 °F 100% 30.07 in 8.0 mi Calm Calm - N/A   Partly Cloudy